Flag for Netherlands Weather past 2 weeks in Nijmegen, Netherlands

Now
54 °F

Fog.


Feels Like: 52 °F
Forecast: 42 / 54 °F
Wind: 6 mph from Southwest

Location: Volkel

Current Time: Apr 26, 2015 at 5:22:07 AM

Latest Report: Apr 26, 2015 at 4:55 AM


Visibility: 4 mi

Pressure: 29.71 "Hg

Humidity: 94%

Dew point: 52 °F

Location of NijmegenLocation

Historic Weather in Nijmegen — Graph

°F

Nijmegen temperature yesterday

Maximum temperature yesterday: 61 °F (at 12:59 PM)
Minimum temperature yesterday: 50 °F (at 6:55 AM)
Average temperature yesterday: 55 °F

Past Weeks' High & Low Weather Summary

 TemperatureHumidityPressure
High75 °F (Apr 15, 3:55 PM)100% (Apr 12, 7:55 AM)30.48 "Hg (Apr 12, 7:55 AM)
Low30 °F (Apr 19, 6:25 AM)28% (Apr 20, 3:25 PM)29.71 "Hg (Apr 25, 2:25 PM)
Average51 °F70%30.17 "Hg
* Reported Apr 11 3:25 AM — Apr 26 3:55 AM, Nijmegen, Weather by CustomWeather, © 2015

Note: Actual official high and low records may vary slightly from our data, if they occured in-between our weather recording intervals... More about our weather records

Advertising

Nijmegen weather history for previous 24 hours

 ConditionsComfort  
Time TempWeatherWind HumidityBarometerVisibility
3:55 AM
Sun, Apr 26
54 °FSprinkles. Partly cloudy.6 mph94%29.71 "Hg4 mi
3:25 AM54 °FPassing clouds.8 mph94%29.71 "Hg4 mi
3:04 AM54 °FPassing clouds.8 mph94%29.71 "Hg5 mi
2:59 AM54 °FPassing clouds.7 mph94%29.71 "Hg4 mi
2:25 AM54 °FOvercast.5 mph88%29.71 "HgN/A
1:55 AM52 °FMostly cloudy.6 mph94%29.74 "HgN/A
1:25 AM48 °FOvercast.2 mph100%29.74 "HgN/A
12:55 AM52 °FPassing clouds.2 mph88%29.74 "HgN/A
12:25 AM50 °FMostly cloudy.3 mph100%29.74 "HgN/A
11:59 PM
Sat, Apr 25
50 °FFog.3 mph100%29.74 "Hg6 mi
11:00 PM50 °FFog.1 mph100%29.74 "Hg2 mi
10:25 PM50 °FFog.1 mph100%29.74 "Hg4 mi
9:55 PM52 °FFog.1 mph94%29.74 "Hg4 mi
9:25 PM52 °FCool.1 mph94%29.74 "HgN/A
8:55 PM55 °FPartly sunny.5 mph82%29.74 "HgN/A
8:25 PM57 °FPartly sunny.6 mph82%29.71 "HgN/A
7:55 PM57 °FScattered clouds.6 mph82%29.71 "HgN/A
7:25 PM59 °FBroken clouds.3 mph82%29.71 "HgN/A
6:55 PM59 °FBroken clouds.6 mph82%29.71 "HgN/A
6:25 PM59 °FOvercast.5 mph82%29.71 "HgN/A
5:55 PM57 °FMostly cloudy.5 mph88%29.71 "HgN/A
5:25 PM55 °FSprinkles. More clouds than sun.5 mph94%29.71 "Hg4 mi
4:55 PM57 °FMostly cloudy.7 mph88%29.74 "HgN/A
4:25 PM55 °FRain showers. Broken clouds.8 mph94%29.74 "Hg2 mi
3:56 PM57 °FFog.10 mph88%29.74 "Hg6 mi
3:55 PM57 °FDrizzle. Mostly cloudy.9 mph88%29.74 "Hg4 mi
3:25 PM57 °FDrizzle. More clouds than sun.14 mph82%29.71 "Hg4 mi
2:55 PM61 °FBroken clouds.13 mph68%29.71 "HgN/A
2:25 PM61 °FBroken clouds.13 mph68%29.71 "HgN/A
2:03 PM61 °FBroken clouds.13 mph68%29.74 "HgN/A
1:55 PM61 °FPartly sunny.14 mph68%29.74 "HgN/A
1:25 PM59 °FBroken clouds.15 mph77%29.74 "HgN/A
12:59 PM61 °FPartly sunny.15 mph72%29.74 "HgN/A
12:55 PM59 °FBroken clouds.15 mph72%29.74 "HgN/A
12:25 PM59 °FPartly sunny.10 mph72%29.74 "HgN/A
12:00 PM57 °FOvercast.12 mph77%29.74 "HgN/A
11:25 AM57 °FPartly sunny.12 mph77%29.74 "HgN/A
10:55 AM55 °FScattered clouds.12 mph82%29.77 "HgN/A
10:25 AM54 °FScattered clouds.10 mph82%29.77 "HgN/A
10:03 AM52 °FOvercast.10 mph88%29.77 "HgN/A
9:55 AM52 °FDrizzle. Mostly cloudy.9 mph94%29.77 "HgN/A
9:25 AM52 °FLow clouds.10 mph94%29.77 "HgN/A
8:55 AM52 °FDrizzle. Partly sunny.9 mph94%29.77 "Hg4 mi
8:25 AM52 °FDrizzle. Broken clouds.9 mph94%29.77 "Hg3 mi
7:59 AM52 °FDrizzle. Low clouds.10 mph94%29.77 "Hg3 mi
7:55 AM52 °FDrizzle. More clouds than sun.10 mph94%29.77 "Hg3 mi
7:25 AM52 °FDrizzle. Overcast.8 mph94%29.77 "Hg4 mi
6:55 AM50 °FDrizzle. Mostly cloudy.8 mph100%29.77 "Hg4 mi
6:25 AM52 °FDrizzle. Mostly cloudy.7 mph88%29.77 "Hg4 mi
5:55 AM52 °FDrizzle. Mostly cloudy.14 mph88%29.77 "Hg6 mi
5:25 AM52 °FFog.8 mph88%29.77 "Hg4 mi
Weather by CustomWeather, © 2015

See weather overviewHow to use our weather pages